User: anonymous   Login
Location: Saint-Palais-sur-Mer
(45.6429°N, 1.0859°W)
Time: 01:31:13
(UTC+02:00)
Language:

TIGRISAT - Orbit

View from above orbital plane
View from above orbital plane
View from above satellite
View from above satellite

Ground track
Ground track

The orbit data is extracted from the following two-line orbital elements,

1 40043U 14033AK  24109.38916378  .00007153  00000-0  96162-3 0  9996
2 40043  97.6897 274.7423 0056920 137.5983 222.9648 14.78418306528624
Epoch (UTC): 18 April 2024 09:20:23
Eccentricity: 0.0056920
inclination: 97.6897°
perigee height: 594 km
apogee height: 674 km
right ascension of ascending node: 274.7423°
argument of perigee: 137.5983°
revolutions per day: 14.78418306
mean anomaly at epoch: 222.9648°
orbit number at epoch: 52862

The dashed part of the orbit path shows where the satellite is in the earth's shadow,  

DLR